This demonstration page uses our WeatherBlox Daily Observations layout. Learn more.

41.55636, -103.73856

Hourly Observations for December 16, 2019

Temp ( °F °C ) Dew Point ( °F °C ) Humidity (%) Winds ( mph kmh ) Pressure ( in mb ) Visibility ( mi km ) Precip ( " mm )
12:58 am 00:58 Clear 19 -7.1 12 -11.1 73 73 SW 3 6 30.11 1020 10 16.0934 0 0
1:58 am 01:58 Partly Cloudy 20 -6.6 13 -10.7 73 73 SW 5 7 30.12 1020 10 16.0934 0 0
2:58 am 02:58 Mostly Cloudy 14 -10.1 9 -12.7 81 81 SW 6 9 30.16 1022 10 16.0934 0 0
3:58 am 03:58 Cloudy 14 -10 7 -13.7 75 75 WNW 5 7 30.16 1021 10 16.0934 0 0
4:58 am 04:58 Mostly Cloudy 12 -11.2 6 -14.2 79 79 W 3 6 30.17 1022 10 16.0934 0 0
5:58 am 05:58 Mostly Cloudy 9 -12.6 4 -15.3 80 80 WSW 5 7 30.17 1022 10 16.0934 0 0
6:58 am 06:58 Mostly Clear 12 -11.3 5 -14.8 76 76 W 3 6 30.17 1022 10 16.0934 0 0
7:58 am 07:58 Clear 13 -10.8 4 -15.5 69 69 W 6 9 30.18 1022 10 16.0934 0 0
8:58 am 08:58 Clear 10 -12 3 -16 72 72 WSW 3 6 30.2 1023 10 16.0934 0 0
9:58 am 09:58 Clear 10 -12.3 3 -16.2 73 73 WSW 5 7 30.22 1023 10 16.0934 0 0
10:58 am 10:58 Clear 11 -11.5 3 -15.9 70 70 W 5 7 30.23 1024 10 16.0934 0 0
11:58 am 11:58 Mostly Clear 7 -14 2 -16.4 82 82 WSW 7 11 30.29 1026 10 16.0934 0 0
12:58 pm 12:58 Clear 11 -11.9 4 -15.3 76 76 W 7 11 30.29 1026 10 16.0934 0 0
1:58 pm 13:58 Clear 11 -11.7 5 -14.9 77 77 W 8 13 30.31 1026 10 16.0934 0 0
2:58 pm 14:58 Sunny 12 -11.2 5 -15.1 73 73 WSW 5 7 30.35 1028 10 16.0934 0 0
3:58 pm 15:58 Sunny 14 -10.1 7 -14.1 73 73 W 8 13 30.37 1029 10 16.0934 0 0
4:58 pm 16:58 Sunny 18 -7.6 9 -12.9 66 66 WNW 12 19 30.39 1029 10 16.0934 0 0
5:58 pm 17:58 Sunny 21 -5.9 10 -12.1 62 62 WNW 13 20 30.37 1028 10 16.0934 0 0
6:58 pm 18:58 Sunny 23 -5 12 -11.1 63 63 NW 12 19 30.35 1028 10 16.0934 0 0
7:58 pm 19:58 Sunny 24 -4.4 13 -10.5 63 63 WNW 8 13 30.33 1027 10 16.0934 0 0
8:58 pm 20:58 Sunny 25 -3.8 12 -10.9 58 58 NW 18 30 30.36 1028 10 16.0934 0 0
9:58 pm 21:58 Sunny 23 -4.8 11 -11.9 58 58 WNW 16 26 30.39 1029 10 16.0934 0 0
10:58 pm 22:58 Sunny 21 -6.1 10 -12.2 62 62 WNW 17 28 30.41 1030 10 16.0934 0 0
11:58 pm 23:58 Clear 17 -8.2 8 -13.3 67 67 W 10 17 30.46 1031 10 16.0934 0 0

Powered by AerisWeather